Weather History for KAPC - November, 2013

Change the Weather History Date:

Wednesday, November 13, 2013

  Actual Average Record
Temperature  
Mean Temperature 55 °F 52 °F  
Max Temperature 72 °F 65 °F 80 °F (1999)
Min Temperature 37 °F 39 °F 30 °F (2000)
Degree Days  
Heating Degree Days 10    
Month to date heating degree days 134  
Since 1 July heating degree days 444  
Cooling Degree Days 0    
Month to date cooling degree days 0  
Year to date cooling degree days 303  
Growing Degree Days 6 (Base 50)    
Moisture  
Dew Point 45 °F    
Average Humidity 71    
Maximum Humidity 100    
Minimum Humidity 41    
Precipitation  
Precipitation 0.00 in - 1.71 in (1984)
Month to date precipitation T  
Year to date precipitation 2.82  
Since 1 July precipitation 0.85  
Sea Level Pressure  
Sea Level Pressure 30.16 in    
Wind  
Wind Speed 3 mph (South)    
Max Wind Speed 10 mph    
Max Gust Speed 12 mph    
Visibility 8 miles    
Events      
T = Trace of Precipitation, MM = Missing Value Source: NWS Daily Summary

Daily Weather History Graph

Daily Weather History Graph

Search for Another Location

Airport or City:

Trip Planner

Search our weather history database for the weather conditions in past years. The results will help you decide how hot, cold, wet, or windy it might be!

Date:

Astronomy

Nov. 13, 2013 Rise Set
Actual Time 6:48 AM PST 4:58 PM PST
Civil Twilight 6:20 AM PST 5:26 PM PST
Nautical Twilight 5:48 AM PST 5:57 PM PST
Astronomical Twilight 5:17 AM PST 6:29 PM PST
Moon 2:45 PM PST (11/13) 2:50 AM PST (11/13)
Length of Visible Light 11h 05m
Length of Day
10h 09m
Waxing Gibbous, 85% of the Moon is Illuminated
Nov 13
Waxing Gibbous
Nov 17
Full
Nov 25
Last Quarter
Dec 2
New
Dec 9
First Quarter

Hourly Weather History & Observations

Time (PST) Temp. Dew Point Humidity Pressure Visibility Wind Dir Wind Speed Gust Speed Precip Events Conditions
12:54 AM 43.0 °F 41.0 °F 93% 30.22 in 10.0 mi Calm Calm - N/A   Clear
1:54 AM 45.0 °F 42.1 °F 90% 30.22 in 10.0 mi Calm Calm - N/A   Clear
2:54 AM 39.9 °F 39.0 °F 97% 30.21 in 10.0 mi Calm Calm - N/A   Clear
3:54 AM 39.0 °F 37.9 °F 96% 30.20 in 10.0 mi Calm Calm - N/A   Clear
4:41 AM 39.2 °F 39.2 °F 100% 30.22 in 1.8 mi Calm Calm - N/A   Clear
4:50 AM 41.0 °F 39.2 °F 93% 30.23 in 0.8 mi Calm Calm - N/A   Clear
4:54 AM 41.0 °F 39.0 °F 93% 30.20 in 1.2 mi Calm Calm - N/A   Clear
5:00 AM 41.0 °F 39.2 °F 93% 30.23 in 3.0 mi Calm Calm - N/A   Clear
5:54 AM 39.9 °F 39.9 °F 100% 30.19 in 10.0 mi Calm Calm - N/A   Clear
6:54 AM 42.1 °F 41.0 °F 96% 30.19 in 10.0 mi Calm Calm - N/A   Clear
7:54 AM 46.9 °F 44.1 °F 90% 30.23 in 10.0 mi Calm Calm - N/A   Clear
8:54 AM 54.0 °F 45.0 °F 72% 30.23 in 10.0 mi Calm Calm - N/A   Clear
9:54 AM 60.1 °F 46.0 °F 60% 30.22 in 10.0 mi Calm Calm - N/A   Clear
10:54 AM 62.1 °F 45.0 °F 53% 30.19 in 10.0 mi SSW 4.6 mph - N/A   Clear
11:54 AM 66.9 °F 46.0 °F 47% 30.16 in 10.0 mi SW 4.6 mph - N/A   Clear
12:54 PM 71.1 °F 46.0 °F 41% 30.13 in 10.0 mi SSW 5.8 mph - N/A   Clear
1:54 PM 71.1 °F 50.0 °F 47% 30.10 in 10.0 mi South 5.8 mph - N/A   Clear
2:54 PM 72.0 °F 52.0 °F 49% 30.09 in 10.0 mi SSW 9.2 mph - N/A   Clear
3:54 PM 69.1 °F 51.1 °F 53% 30.09 in 10.0 mi SSW 8.1 mph - N/A   Clear
4:54 PM 63.0 °F 51.1 °F 65% 30.08 in 10.0 mi South 5.8 mph - N/A   Clear
5:54 PM 60.1 °F 51.1 °F 72% 30.09 in 10.0 mi SSE 5.8 mph - N/A   Clear
6:54 PM 57.0 °F 50.0 °F 77% 30.08 in 10.0 mi South 8.1 mph - N/A   Clear
7:54 PM 53.1 °F 48.9 °F 86% 30.08 in 10.0 mi South 5.8 mph - N/A   Clear
8:54 PM 51.1 °F 48.0 °F 89% 30.08 in 10.0 mi SE 4.6 mph - N/A   Clear
9:54 PM 51.1 °F 48.9 °F 92% 30.09 in 10.0 mi Calm Calm - N/A   Clear
10:54 PM 51.1 °F 48.9 °F 92% 30.10 in 10.0 mi Calm Calm - N/A   Clear
11:54 PM 50.0 °F 48.9 °F 96% 30.09 in 8.0 mi ESE 3.5 mph - N/A   Clear
11:59 PM 44.6 °F 44.6 °F 100% 30.11 in 1.0 mi Calm Calm - N/A   Mist